Погода в Каировке

Россия / Оренбургская область     51°47′10″N   56°32′16″E
темп.,
°C
ветер,
м/с
пор.,
м/с
влажн.,
%
обл.,
%
осадки,
мм/ч
давл.,
гПа
погр.,
м
10 апреля, сб
сб1023:00+5вюв514775 0.0 1026295
02:00+5вюв5137320 0.0 1027240
05:00+5вюв6157431 0.0 1028280
08:00+5вюв6157453 0.0 1029299
11:00+7юв814786 0.0 1030374
14:00+9вюв9138171 0.0 1031425
17:00+7вюв8159495 0.0 1032383
20:00+5вюв81696100 0.0 1032389
11 апреля, вс
вс1123:00+3вюв615815 0.0 1033339
02:00+2вюв615785 0.0 1034339
05:00+2вюв61482100 0.0 1035301
08:00+2вюв6139491 0.0 1036357
11:00+7юв687615 0.0 1036490
14:00+11юв786530 0.0 1035604
17:00+12юв686450 0.0 1034604
20:00+8вюв498163 0.0 1035236
12 апреля, пн
пн1223:00+5вюв378138 0.0 1035138
02:00+4в237415 0.0 103647
05:00+2в226729 0.0 103615
08:00+4вюв236018 0.0 103683
11:00+11в233818 0.0 1036393
14:00+15вюв34315 0.0 1035722
17:00+16в44335 0.0 1034782
20:00+10в35595 0.0 103469
13 апреля, вт
вт1323:00+7в33675 0.0 103536
02:00+5всв22727 0.0 103612
05:00+4всв227642 0.0 103612
08:00+5всв267028 0.0 1036178
11:00+12вюв46405 0.0 1036552
14:00+16вюв55285 0.0 1034902
17:00+17вюв45285 0.0 1033970
20:00+12в33505 0.0 103337
14 апреля, ср
ср1423:00+9в33635 0.0 103330
02:00+7в22756 0.0 103314
05:00+6всв22853 0.0 103211
08:00+8всв22822 0.0 103272
11:00+14в34612 0.0 1030582
14:00+18в33460 0.0 10281184
17:00+19в34390 0.0 10261412
20:00+14в33570 0.0 102524